Time,TemperatureF,DewpointF,PressureIn,WindDirection,WindDirectionDegrees,WindSpeedMPH,WindSpeedGustMPH,Humidity,HourlyPrecipIn,Conditions,Clouds,dailyrainin,SoftwareType,DateUTC
2013-10-09 00:13:00,60.0,46.0,29.75,SSE,157,3.0,4.0,60,0.00,,,0.00,,2013-10-09 05:13:00,
2013-10-09 00:22:00,60.0,46.0,29.76,SE,141,2.0,4.0,60,0.00,,,0.00,,2013-10-09 05:22:00,
2013-10-09 00:42:00,60.0,47.0,29.76,SE,125,2.0,5.0,61,0.00,,,0.00,,2013-10-09 05:42:00,
2013-10-09 00:52:00,60.0,47.0,29.76,SE,146,1.0,5.0,61,0.00,,,0.00,,2013-10-09 05:52:00,
2013-10-09 01:12:00,60.0,47.0,29.76,South,170,2.0,5.0,61,0.00,,,0.00,,2013-10-09 06:12:00,
2013-10-09 01:22:00,60.0,47.0,29.76,SE,135,1.0,5.0,61,0.00,,,0.00,,2013-10-09 06:22:00,
2013-10-09 01:42:00,58.0,41.0,29.77,SSE,148,3.0,7.0,54,0.00,,,0.00,,2013-10-09 06:42:00,
2013-10-09 01:52:00,58.0,40.0,29.77,SE,131,3.0,6.0,52,0.00,,,0.00,,2013-10-09 06:52:00,
2013-10-09 02:42:00,59.0,44.0,29.78,SSE,162,2.0,5.0,58,0.00,,,0.00,,2013-10-09 07:42:00,
2013-10-09 02:52:00,59.0,44.0,29.78,South,181,1.0,4.0,58,0.00,,,0.00,,2013-10-09 07:52:00,
2013-10-09 03:12:00,59.0,44.0,29.79,SSW,194,4.0,6.0,58,0.00,,,0.00,,2013-10-09 08:12:00,
2013-10-09 03:23:00,59.0,44.0,29.78,SSW,192,3.0,8.0,58,0.00,,,0.00,,2013-10-09 08:23:00,
2013-10-09 03:42:00,59.0,44.0,29.78,SSW,202,2.0,5.0,58,0.00,,,0.00,,2013-10-09 08:42:00,
2013-10-09 03:53:00,58.0,40.0,29.78,SSW,212,0.0,3.0,52,0.00,,,0.00,,2013-10-09 08:53:00,
2013-10-09 04:11:00,58.0,40.0,29.79,SSW,199,0.0,4.0,52,0.00,,,0.00,,2013-10-09 09:11:00,
2013-10-09 06:52:00,53.0,39.0,29.84,WSW,246,0.0,2.0,60,0.00,,,0.00,,2013-10-09 11:52:00,
2013-10-09 07:42:00,50.0,39.0,29.86,ENE,62,0.0,0.0,66,0.00,,,0.00,,2013-10-09 12:42:00,
2013-10-09 07:52:00,51.0,39.0,29.86,ENE,62,0.0,1.0,63,0.00,,,0.00,,2013-10-09 12:52:00,
2013-10-09 08:11:00,51.0,38.0,29.87,ENE,62,0.0,1.0,62,0.00,,,0.00,,2013-10-09 13:11:00,
2013-10-09 08:22:00,50.0,38.0,29.88,ENE,63,0.0,1.0,62,0.00,,,0.00,,2013-10-09 13:22:00,
2013-10-09 08:42:00,49.0,37.0,29.88,ENE,63,0.0,2.0,64,0.00,,,0.00,,2013-10-09 13:42:00,
2013-10-09 08:52:00,50.0,38.0,29.89,ENE,63,0.0,0.0,64,0.00,,,0.00,,2013-10-09 13:52:00,
2013-10-09 09:11:00,51.0,38.0,29.90,ENE,63,0.0,0.0,61,0.00,,,0.00,,2013-10-09 14:11:00,
2013-10-09 09:22:00,53.0,38.0,29.91,ENE,63,0.0,0.0,56,0.00,,,0.00,,2013-10-09 14:22:00,
2013-10-09 12:22:00,64.0,48.0,29.92,SW,234,2.0,3.0,56,0.00,,,0.00,,2013-10-09 17:22:00,
2013-10-09 12:42:00,66.0,51.0,29.92,SW,234,0.0,3.0,58,0.00,,,0.00,,2013-10-09 17:42:00,
2013-10-09 12:52:00,67.0,51.0,29.92,NNW,330,3.0,7.0,56,0.00,,,0.00,,2013-10-09 17:52:00,
2013-10-09 13:12:00,67.0,51.0,29.92,NW,309,0.0,6.0,56,0.00,,,0.00,,2013-10-09 18:12:00,
2013-10-09 13:22:00,68.0,51.0,29.92,ENE,62,1.0,5.0,55,0.00,,,0.00,,2013-10-09 18:22:00,
2013-10-09 13:42:00,68.0,51.0,29.92,NNW,338,2.0,7.0,55,0.00,,,0.00,,2013-10-09 18:42:00,
2013-10-09 13:52:00,68.0,51.0,29.92,NE,56,0.0,6.0,54,0.00,,,0.00,,2013-10-09 18:52:00,
2013-10-09 14:11:00,69.0,52.0,29.91,North,355,3.0,7.0,54,0.00,,,0.00,,2013-10-09 19:11:00,
2013-10-09 14:22:00,69.0,51.0,29.91,ENE,76,3.0,9.0,53,0.00,,,0.00,,2013-10-09 19:22:00,
2013-10-09 14:42:00,69.0,52.0,29.91,North,355,3.0,10.0,54,0.00,,,0.00,,2013-10-09 19:42:00,
2013-10-09 14:52:00,70.0,52.0,29.91,NNW,342,4.0,7.0,53,0.00,,,0.00,,2013-10-09 19:52:00,
2013-10-09 15:11:00,70.0,52.0,29.91,ENE,67,2.0,8.0,52,0.00,,,0.00,,2013-10-09 20:11:00,
2013-10-09 15:22:00,70.0,52.0,29.91,North,355,1.0,9.0,52,0.00,,,0.00,,2013-10-09 20:22:00,
2013-10-09 15:43:00,71.0,52.0,29.91,ENE,76,3.0,8.0,51,0.00,,,0.00,,2013-10-09 20:43:00,
2013-10-09 15:52:00,70.0,50.0,29.91,ESE,114,3.0,9.0,50,0.00,,,0.00,,2013-10-09 20:52:00,
2013-10-09 16:11:00,71.0,51.0,29.90,NNE,28,1.0,9.0,50,0.00,,,0.00,,2013-10-09 21:11:00,
2013-10-09 16:22:00,71.0,52.0,29.89,NE,53,3.0,10.0,51,0.00,,,0.00,,2013-10-09 21:22:00,
2013-10-09 16:44:00,71.0,51.0,29.89,ENE,66,2.0,9.0,49,0.00,,,0.00,,2013-10-09 21:44:00,
2013-10-09 16:53:00,71.0,51.0,29.89,ENE,66,4.0,10.0,50,0.00,,,0.00,,2013-10-09 21:53:00,
2013-10-09 17:13:00,71.0,51.0,29.89,East,79,6.0,9.0,50,0.00,,,0.00,,2013-10-09 22:13:00,
2013-10-09 17:24:00,71.0,51.0,29.89,East,79,6.0,9.0,50,0.00,,,0.00,,2013-10-09 22:24:00,
2013-10-09 17:43:00,71.0,51.0,29.89,East,82,4.0,7.0,50,0.00,,,0.00,,2013-10-09 22:43:00,
2013-10-09 17:53:00,71.0,52.0,29.89,East,86,5.0,8.0,51,0.00,,,0.00,,2013-10-09 22:53:00,
2013-10-09 18:12:00,70.0,52.0,29.89,East,92,4.0,7.0,52,0.00,,,0.00,,2013-10-09 23:12:00,
2013-10-09 18:22:00,69.0,51.0,29.89,ENE,70,1.0,3.0,52,0.00,,,0.00,,2013-10-09 23:22:00,
2013-10-09 18:42:00,68.0,52.0,29.89,ENE,70,0.0,2.0,56,0.00,,,0.00,,2013-10-09 23:42:00,
2013-10-09 18:53:00,67.0,52.0,29.89,NE,46,0.0,2.0,59,0.00,,,0.00,,2013-10-09 23:53:00,
2013-10-09 19:12:00,66.0,51.0,29.89,NE,44,1.0,3.0,58,0.00,,,0.00,,2013-10-10 00:12:00,
2013-10-09 19:22:00,65.0,49.0,29.89,NNE,24,0.0,5.0,57,0.00,,,0.00,,2013-10-10 00:22:00,
2013-10-09 19:42:00,64.0,45.0,29.89,NNE,15,0.0,2.0,51,0.00,,,0.00,,2013-10-10 00:42:00,
2013-10-09 22:22:00,56.0,43.0,29.90,WNW,298,1.0,5.0,62,0.00,,,0.00,,2013-10-10 03:22:00,
2013-10-09 22:44:00,55.0,43.0,29.89,West,267,2.0,5.0,63,0.00,,,0.00,,2013-10-10 03:44:00,